SKU161 SCEL-SCIE

Flight info

Callsign SKU161
Flight time 0h 53m
Altitude 31000
Route GELUS5B GELUS UQ809 ARUNI ARUNI6C
Aircraft A21N/M-SDE2E3FGHIRWXY/LB1

Departure

Time 2026-05-08 14:15
Airport Comodoro Arturo Merino Benítez International Airport (SCEL)

Arrival

Time 2026-05-08 15:09
Airport Carriel Sur International Airport (SCIE)
Time Latitude Longitude Altitude Speed Heading
2026-05-08 13:53 -33.39602 -70.79697 1570 ft 0 kts 177°
2026-05-08 14:03 -33.39588 -70.79697 1570 ft 4 kts 177°
2026-05-08 14:03 -33.39561 -70.79699 1570 ft 4 kts 177°
2026-05-08 14:04 -33.39540 -70.79698 1570 ft 4 kts 207°
2026-05-08 14:04 -33.39524 -70.79677 1570 ft 4 kts 251°
2026-05-08 14:04 -33.39520 -70.79654 1570 ft 0 kts 267°
2026-05-08 14:06 -33.39520 -70.79661 1570 ft 2 kts 267°
2026-05-08 14:07 -33.39522 -70.79693 1570 ft 6 kts 266°
2026-05-08 14:07 -33.39524 -70.79751 1570 ft 8 kts 267°
2026-05-08 14:07 -33.39526 -70.79796 1570 ft 4 kts 269°
2026-05-08 14:07 -33.39526 -70.79831 1570 ft 6 kts 268°
2026-05-08 14:08 -33.39528 -70.79893 1570 ft 9 kts 268°
2026-05-08 14:08 -33.39530 -70.79977 1571 ft 11 kts 275°
2026-05-08 14:08 -33.39476 -70.80047 1571 ft 11 kts 349°
2026-05-08 14:08 -33.39393 -70.80050 1571 ft 13 kts 358°
2026-05-08 14:09 -33.39295 -70.80056 1572 ft 16 kts 357°
2026-05-08 14:09 -33.39180 -70.80063 1572 ft 18 kts 357°
2026-05-08 14:09 -33.39051 -70.80071 1572 ft 20 kts 357°
2026-05-08 14:09 -33.38914 -70.80079 1572 ft 19 kts 357°
2026-05-08 14:10 -33.38776 -70.80086 1572 ft 21 kts 357°
2026-05-08 14:10 -33.38625 -70.80094 1572 ft 22 kts 357°
2026-05-08 14:10 -33.38464 -70.80103 1572 ft 24 kts 357°
2026-05-08 14:10 -33.38290 -70.80112 1571 ft 26 kts 357°
2026-05-08 14:11 -33.38118 -70.80121 1571 ft 21 kts 358°
2026-05-08 14:11 -33.37970 -70.80128 1571 ft 22 kts 356°
2026-05-08 14:11 -33.37814 -70.80137 1571 ft 23 kts 356°
2026-05-08 14:11 -33.37648 -70.80146 1572 ft 25 kts 358°
2026-05-08 14:12 -33.37468 -70.80156 1572 ft 27 kts 357°
2026-05-08 14:12 -33.37291 -70.80163 1572 ft 19 kts 358°
2026-05-08 14:12 -33.37189 -70.80169 1572 ft 11 kts 356°
2026-05-08 14:12 -33.37115 -70.80218 1573 ft 14 kts 304°
2026-05-08 14:13 -33.37102 -70.80261 1575 ft 0 kts 270°
2026-05-08 14:13 -33.37102 -70.80272 1576 ft 4 kts 267°
2026-05-08 14:14 -33.37112 -70.80324 1579 ft 9 kts 247°
2026-05-08 14:14 -33.37163 -70.80374 1579 ft 7 kts 187°
2026-05-08 14:14 -33.37199 -70.80374 1579 ft 5 kts 179°
2026-05-08 14:14 -33.37467 -70.80359 1580 ft 85 kts 177°
2026-05-08 14:15 -33.38362 -70.80312 1579 ft 171 kts 178°
2026-05-08 14:15 -33.39719 -70.80223 2037 ft 207 kts 178°
2026-05-08 14:15 -33.41181 -70.80169 3242 ft 211 kts 179°
2026-05-08 14:15 -33.42720 -70.80135 3971 ft 235 kts 179°
2026-05-08 14:16 -33.44428 -70.80252 4546 ft 257 kts 193°
2026-05-08 14:16 -33.46066 -70.81170 5431 ft 265 kts 217°
2026-05-08 14:16 -33.47279 -70.82838 6427 ft 270 kts 238°
2026-05-08 14:16 -33.48200 -70.84817 7379 ft 275 kts 242°
2026-05-08 14:17 -33.49110 -70.86856 8198 ft 279 kts 242°
2026-05-08 14:17 -33.50040 -70.88904 8747 ft 278 kts 239°
2026-05-08 14:17 -33.50971 -70.90923 8969 ft 276 kts 238°
2026-05-08 14:17 -33.51895 -70.92907 9012 ft 276 kts 238°
2026-05-08 14:18 -33.52836 -70.94917 9004 ft 276 kts 238°
2026-05-08 14:18 -33.53838 -70.96864 9505 ft 275 kts 229°
2026-05-08 14:18 -33.55283 -70.98353 10368 ft 279 kts 209°
2026-05-08 14:18 -33.57074 -70.99473 10781 ft 303 kts 204°
2026-05-08 14:19 -33.59053 -71.00626 11169 ft 325 kts 204°
2026-05-08 14:19 -33.61108 -71.01836 11936 ft 331 kts 205°
2026-05-08 14:19 -33.63172 -71.03069 12949 ft 330 kts 205°
2026-05-08 14:19 -33.65210 -71.04301 14057 ft 326 kts 205°
2026-05-08 14:20 -33.67232 -71.05524 15030 ft 324 kts 205°
2026-05-08 14:20 -33.69242 -71.06742 15886 ft 324 kts 205°
2026-05-08 14:20 -33.71254 -71.07961 16694 ft 325 kts 205°
2026-05-08 14:20 -33.73278 -71.09189 17480 ft 326 kts 206°
2026-05-08 14:21 -33.75291 -71.10417 18235 ft 324 kts 206°
2026-05-08 14:21 -33.77316 -71.11651 18933 ft 327 kts 206°
2026-05-08 14:21 -33.79326 -71.12876 19553 ft 330 kts 206°
2026-05-08 14:21 -33.81377 -71.14126 20162 ft 332 kts 206°
2026-05-08 14:22 -33.83448 -71.15387 20784 ft 335 kts 206°
2026-05-08 14:22 -33.85539 -71.16663 21409 ft 339 kts 206°
2026-05-08 14:22 -33.87647 -71.17951 22022 ft 341 kts 206°
2026-05-08 14:22 -33.89777 -71.19254 22668 ft 344 kts 206°
2026-05-08 14:23 -33.91917 -71.20562 23290 ft 347 kts 206°
2026-05-08 14:23 -33.94081 -71.21886 23876 ft 350 kts 206°
2026-05-08 14:23 -33.96258 -71.23218 24370 ft 352 kts 206°
2026-05-08 14:23 -33.98451 -71.24559 24905 ft 354 kts 206°
2026-05-08 14:24 -34.00652 -71.25908 25453 ft 356 kts 206°
2026-05-08 14:24 -34.02860 -71.27263 25993 ft 356 kts 206°
2026-05-08 14:24 -34.05073 -71.28619 26550 ft 357 kts 206°
2026-05-08 14:24 -34.07293 -71.29981 27097 ft 358 kts 206°
2026-05-08 14:25 -34.09505 -71.31341 27709 ft 355 kts 206°
2026-05-08 14:25 -34.11688 -71.32684 28425 ft 350 kts 206°
2026-05-08 14:25 -34.13843 -71.34008 29128 ft 345 kts 205°
2026-05-08 14:25 -34.15971 -71.35315 29832 ft 341 kts 205°
2026-05-08 14:26 -34.18081 -71.36614 30472 ft 338 kts 205°
2026-05-08 14:26 -34.20141 -71.37882 30933 ft 336 kts 205°
2026-05-08 14:26 -34.22212 -71.39160 31157 ft 333 kts 205°
2026-05-08 14:27 -34.26380 -71.41730 31246 ft 338 kts 205°
2026-05-08 14:27 -34.30568 -71.44313 31243 ft 338 kts 206°
2026-05-08 14:28 -34.34737 -71.46893 31257 ft 335 kts 205°
2026-05-08 14:28 -34.38884 -71.49459 31243 ft 334 kts 205°
2026-05-08 14:29 -34.43036 -71.52028 31245 ft 336 kts 205°
2026-05-08 14:29 -34.47171 -71.54593 31243 ft 336 kts 205°
2026-05-08 14:30 -34.51335 -71.57179 31219 ft 338 kts 205°
2026-05-08 14:30 -34.55537 -71.59791 31249 ft 340 kts 205°
2026-05-08 14:31 -34.59741 -71.62407 31282 ft 340 kts 205°
2026-05-08 14:31 -34.63912 -71.65004 31252 ft 335 kts 205°
2026-05-08 14:32 -34.70163 -71.68899 31251 ft 337 kts 205°
2026-05-08 14:32 -34.74340 -71.71510 31248 ft 337 kts 205°
2026-05-08 14:33 -34.78510 -71.74117 31249 ft 337 kts 205°
2026-05-08 14:33 -34.82682 -71.76727 31248 ft 337 kts 205°
2026-05-08 14:34 -34.86825 -71.79318 31284 ft 337 kts 205°
2026-05-08 14:34 -34.90970 -71.81919 31253 ft 334 kts 204°
2026-05-08 14:35 -34.95099 -71.84515 31250 ft 334 kts 204°
2026-05-08 14:35 -34.98536 -71.86677 31250 ft 334 kts 204°
2026-05-08 14:36 -35.03344 -71.89701 31260 ft 334 kts 204°
2026-05-08 14:36 -35.06814 -71.91887 31204 ft 336 kts 204°
2026-05-08 14:37 -35.10979 -71.94515 31233 ft 338 kts 204°
2026-05-08 14:37 -35.15136 -71.97137 31246 ft 338 kts 204°
2026-05-08 14:38 -35.19306 -71.99775 31246 ft 338 kts 204°
2026-05-08 14:38 -35.23483 -72.02419 31239 ft 338 kts 204°
2026-05-08 14:39 -35.27661 -72.05068 31241 ft 337 kts 204°
2026-05-08 14:39 -35.31725 -72.07648 31093 ft 322 kts 204°
2026-05-08 14:40 -35.33745 -72.08933 30858 ft 329 kts 204°
2026-05-08 14:40 -35.35786 -72.10227 30627 ft 331 kts 204°
2026-05-08 14:40 -35.37842 -72.11534 30391 ft 333 kts 204°
2026-05-08 14:40 -35.39907 -72.12847 30148 ft 335 kts 204°
2026-05-08 14:41 -35.41946 -72.14146 29874 ft 335 kts 204°
2026-05-08 14:41 -35.44018 -72.15467 29599 ft 337 kts 204°
2026-05-08 14:41 -35.46100 -72.16795 29326 ft 338 kts 204°
2026-05-08 14:41 -35.48188 -72.18127 29060 ft 339 kts 204°
2026-05-08 14:42 -35.50280 -72.19461 28794 ft 339 kts 204°
2026-05-08 14:42 -35.52370 -72.20798 28517 ft 337 kts 204°
2026-05-08 14:42 -35.54450 -72.22128 28262 ft 336 kts 204°
2026-05-08 14:42 -35.56521 -72.23452 27997 ft 335 kts 204°
2026-05-08 14:43 -35.58582 -72.24772 27742 ft 334 kts 204°
2026-05-08 14:43 -35.60640 -72.26090 27439 ft 333 kts 204°
2026-05-08 14:43 -35.62690 -72.27403 27188 ft 332 kts 204°
2026-05-08 14:43 -35.64739 -72.28715 26935 ft 331 kts 204°
2026-05-08 14:44 -35.66778 -72.30023 26694 ft 330 kts 204°
2026-05-08 14:44 -35.68816 -72.31331 26447 ft 330 kts 204°
2026-05-08 14:44 -35.70847 -72.32636 26200 ft 329 kts 204°
2026-05-08 14:44 -35.72874 -72.33936 25961 ft 328 kts 204°
2026-05-08 14:45 -35.74892 -72.35232 25717 ft 327 kts 204°
2026-05-08 14:45 -35.76905 -72.36524 25421 ft 324 kts 204°
2026-05-08 14:45 -35.78861 -72.37784 25002 ft 318 kts 204°
2026-05-08 14:45 -35.80809 -72.39037 24558 ft 313 kts 205°
2026-05-08 14:46 -35.82732 -72.40275 24107 ft 309 kts 205°
2026-05-08 14:46 -35.84629 -72.41497 23642 ft 306 kts 205°
2026-05-08 14:46 -35.86503 -72.42705 23144 ft 302 kts 205°
2026-05-08 14:46 -35.88301 -72.44034 22677 ft 300 kts 211°
2026-05-08 14:47 -35.89894 -72.45702 22191 ft 302 kts 218°
2026-05-08 14:47 -35.91342 -72.47567 21693 ft 300 kts 220°
2026-05-08 14:47 -35.92763 -72.49440 21236 ft 297 kts 220°
2026-05-08 14:47 -35.94171 -72.51290 20810 ft 294 kts 220°
2026-05-08 14:48 -35.95567 -72.53121 20374 ft 291 kts 220°
2026-05-08 14:48 -35.96946 -72.54922 19961 ft 288 kts 220°
2026-05-08 14:48 -35.98323 -72.56720 19570 ft 287 kts 220°
2026-05-08 14:48 -35.99687 -72.58501 19186 ft 285 kts 220°
2026-05-08 14:49 -36.01033 -72.60255 18805 ft 285 kts 221°
2026-05-08 14:49 -36.02404 -72.62047 18392 ft 288 kts 221°
2026-05-08 14:49 -36.03776 -72.63840 18003 ft 287 kts 221°
2026-05-08 14:49 -36.05141 -72.65627 17629 ft 285 kts 221°
2026-05-08 14:50 -36.06501 -72.67407 17243 ft 285 kts 221°
2026-05-08 14:50 -36.07862 -72.69189 16840 ft 285 kts 221°
2026-05-08 14:50 -36.09223 -72.70970 16461 ft 285 kts 221°
2026-05-08 14:50 -36.10581 -72.72750 16076 ft 285 kts 221°
2026-05-08 14:51 -36.11947 -72.74541 15721 ft 285 kts 221°
2026-05-08 14:51 -36.13311 -72.76329 15362 ft 285 kts 221°
2026-05-08 14:51 -36.14669 -72.78112 14999 ft 285 kts 221°
2026-05-08 14:51 -36.16012 -72.79874 14624 ft 285 kts 221°
2026-05-08 14:52 -36.17367 -72.81655 14250 ft 285 kts 221°
2026-05-08 14:52 -36.20089 -72.85234 13481 ft 285 kts 221°
2026-05-08 14:52 -36.21443 -72.87021 13103 ft 284 kts 221°
2026-05-08 14:53 -36.22795 -72.88803 12739 ft 284 kts 221°
2026-05-08 14:53 -36.24150 -72.90588 12374 ft 284 kts 221°
2026-05-08 14:53 -36.25501 -72.92370 12011 ft 284 kts 221°
2026-05-08 14:53 -36.26855 -72.94154 11650 ft 284 kts 221°
2026-05-08 14:54 -36.28201 -72.95932 11305 ft 279 kts 221°
2026-05-08 14:54 -36.29503 -72.97655 11135 ft 268 kts 221°
2026-05-08 14:54 -36.30735 -72.99270 11001 ft 255 kts 219°
2026-05-08 14:54 -36.32123 -73.00590 10690 ft 244 kts 205°
2026-05-08 14:55 -36.33641 -73.01375 10452 ft 237 kts 198°
2026-05-08 14:55 -36.35177 -73.02061 10263 ft 232 kts 198°
2026-05-08 14:55 -36.36683 -73.02739 10050 ft 229 kts 198°
2026-05-08 14:55 -36.38170 -73.03416 9779 ft 226 kts 198°
2026-05-08 14:56 -36.39644 -73.04091 9532 ft 225 kts 199°
2026-05-08 14:56 -36.41111 -73.04766 9264 ft 226 kts 199°
2026-05-08 14:56 -36.42590 -73.05448 9004 ft 227 kts 199°
2026-05-08 14:56 -36.44079 -73.06136 8758 ft 228 kts 199°
2026-05-08 14:57 -36.45575 -73.06828 8508 ft 229 kts 199°
2026-05-08 14:57 -36.47074 -73.07522 8258 ft 231 kts 199°
2026-05-08 14:57 -36.48581 -73.08221 8007 ft 232 kts 199°
2026-05-08 14:57 -36.50099 -73.08923 7768 ft 233 kts 199°
2026-05-08 14:58 -36.51621 -73.09629 7522 ft 234 kts 199°
2026-05-08 14:58 -36.53151 -73.10339 7270 ft 236 kts 199°
2026-05-08 14:58 -36.54670 -73.11044 7010 ft 237 kts 199°
2026-05-08 14:58 -36.56222 -73.11764 6743 ft 238 kts 199°
2026-05-08 14:59 -36.57779 -73.12488 6458 ft 239 kts 199°
2026-05-08 14:59 -36.60893 -73.13936 5910 ft 238 kts 199°
2026-05-08 14:59 -36.62443 -73.14656 5641 ft 237 kts 199°
2026-05-08 15:00 -36.63984 -73.15373 5376 ft 236 kts 199°
2026-05-08 15:00 -36.65524 -73.16090 5121 ft 236 kts 199°
2026-05-08 15:00 -36.67041 -73.16795 4850 ft 235 kts 199°
2026-05-08 15:00 -36.68575 -73.17509 4570 ft 234 kts 199°
2026-05-08 15:01 -36.70093 -73.18212 4296 ft 232 kts 198°
2026-05-08 15:01 -36.71659 -73.18659 4067 ft 227 kts 187°
2026-05-08 15:01 -36.73164 -73.18893 4114 ft 208 kts 186°
2026-05-08 15:01 -36.74505 -73.19091 4244 ft 180 kts 186°
2026-05-08 15:02 -36.75700 -73.19272 4272 ft 172 kts 187°
2026-05-08 15:02 -36.76860 -73.19450 4239 ft 166 kts 187°
2026-05-08 15:02 -36.78012 -73.19631 4274 ft 166 kts 187°
2026-05-08 15:02 -36.79157 -73.19810 4256 ft 166 kts 187°
2026-05-08 15:03 -36.80293 -73.19986 4250 ft 166 kts 187°
2026-05-08 15:03 -36.81453 -73.20167 4274 ft 166 kts 187°
2026-05-08 15:03 -36.82585 -73.20345 4246 ft 166 kts 187°
2026-05-08 15:03 -36.83731 -73.20526 4170 ft 166 kts 187°
2026-05-08 15:04 -36.84877 -73.20560 3986 ft 166 kts 173°
2026-05-08 15:04 -36.85978 -73.20135 3756 ft 167 kts 157°
2026-05-08 15:04 -36.86943 -73.19314 3506 ft 170 kts 140°
2026-05-08 15:04 -36.87681 -73.18151 3241 ft 172 kts 123°
2026-05-08 15:05 -36.88097 -73.16779 3009 ft 168 kts 105°
2026-05-08 15:05 -36.88168 -73.15329 2731 ft 168 kts 88°
2026-05-08 15:05 -36.87889 -73.13908 2452 ft 169 kts 69°
2026-05-08 15:05 -36.87282 -73.12658 2168 ft 169 kts 49°
2026-05-08 15:06 -36.86382 -73.11724 1903 ft 168 kts 31°
2026-05-08 15:06 -36.85361 -73.11045 1684 ft 162 kts 24°
2026-05-08 15:06 -36.84391 -73.10482 1445 ft 140 kts 24°
2026-05-08 15:06 -36.83546 -73.09988 1226 ft 133 kts 25°
2026-05-08 15:07 -36.82715 -73.09502 1032 ft 130 kts 25°
2026-05-08 15:07 -36.81904 -73.09026 844 ft 128 kts 25°
2026-05-08 15:07 -36.81098 -73.08554 675 ft 128 kts 26°
2026-05-08 15:07 -36.80293 -73.08083 516 ft 129 kts 26°
2026-05-08 15:08 -36.79477 -73.07605 357 ft 130 kts 26°
2026-05-08 15:08 -36.78929 -73.07293 235 ft 131 kts 26°
2026-05-08 15:08 -36.77828 -73.06652 73 ft 125 kts 27°
2026-05-08 15:08 -36.77157 -73.06261 68 ft 79 kts 25°
2026-05-08 15:09 -36.76836 -73.06074 67 ft 33 kts 24°
2026-05-08 15:09 -36.76623 -73.05954 72 ft 34 kts 25°
2026-05-08 15:09 -36.76427 -73.05838 72 ft 26 kts 26°
2026-05-08 15:09 -36.76339 -73.05756 72 ft 14 kts 54°
2026-05-08 15:10 -36.76343 -73.05642 67 ft 15 kts 121°
2026-05-08 15:10 -36.76433 -73.05597 64 ft 17 kts 195°
2026-05-08 15:10 -36.76545 -73.05660 63 ft 19 kts 205°
2026-05-08 15:10 -36.76664 -73.05727 64 ft 16 kts 204°
2026-05-08 15:11 -36.76760 -73.05781 65 ft 16 kts 204°
2026-05-08 15:11 -36.76862 -73.05841 66 ft 17 kts 205°
2026-05-08 15:11 -36.76978 -73.05908 63 ft 19 kts 206°
2026-05-08 15:11 -36.77083 -73.05970 63 ft 15 kts 205°
2026-05-08 15:12 -36.77186 -73.06030 63 ft 17 kts 205°
2026-05-08 15:12 -36.77296 -73.06094 66 ft 17 kts 205°
2026-05-08 15:12 -36.77387 -73.06148 66 ft 10 kts 204°
2026-05-08 15:12 -36.77444 -73.06179 58 ft 6 kts 200°
2026-05-08 15:13 -36.77492 -73.06178 66 ft 8 kts 148°
2026-05-08 15:13 -36.77526 -73.06106 63 ft 11 kts 107°
2026-05-08 15:13 -36.77547 -73.06053 65 ft 2 kts 146°
2026-05-08 15:13 -36.77562 -73.06045 60 ft 4 kts 162°
2026-05-08 15:14 -36.77582 -73.06038 60 ft 3 kts 169°
2026-05-08 15:14 -36.77592 -73.06036 57 ft 1 kts 169°
2026-05-08 15:14 -36.77600 -73.06034 62 ft 1 kts 171°
2026-05-08 15:14 -36.77602 -73.06034 62 ft 1 kts 170°
2026-05-08 15:15 -36.77603 -73.06034 65 ft 0 kts 170°